Regional Weather Roundup
Issued by NWS Goodland, KS

Home | Current Version | Previous Version | Text Only | Print | Product List | Glossary On
Versions: 1 2 3 4 5 6 7 8 9 10 11 12 13 14 15 16 17 18 19 20 21 22 23 24 25 26 27 28 29 30 31 32 33 34 35 36 37 38 39 40 41 42 43 44 45 46 47 48 49 50
000
ASUS43 KGLD 262008
RWRGLD

GOODLAND FORECAST AREA HOURLY WEATHER ROUNDUP
NATIONAL WEATHER SERVICE GOODLAND KS
200 PM MDT TUE SEP 26 2017

...OFFICIAL OBSERVATIONS...

CITY           SKY/WX    TMP DP  RH WIND       PRES   REMARKS
GOODLAND KS    SUNNY     62  47  57 MISG      30.15F
HILL CITY KS   MOSUNNY   59  49  69 N6        30.17F
IMPERIAL NEB   SUNNY     68  41  37 VRB5      30.15F
MCCOOK NEB     SUNNY     65  48  54 E8        30.15F
AKRON CO       MOSUNNY   61  39  44 S5        30.17F
BURLINGTON CO  SUNNY     63  46  54 E9        30.16F
LIMON CO         N/A    N/A N/A N/A MISG      30.18F
$$

...UNOFFICIAL OBSERVATIONS...

CITY           SKY/WX    TMP DP  RH WIND       PRES   REMARKS
LENORA KS        N/A     58  32  37 MISG        N/A
NORTON KS      SUNNY     57  45  62 E3        30.16F
SHARON SPRINGS   N/A     57  50  77 CALM        N/A
KIT CARSON CO    N/A     63  48  59 MISG        N/A
YUMA CO        FAIR      61  36  39 E7        30.16F
$$




USA.gov is the U.S. government's official web portal to all federal, state and local government web resources and services.